Probability
0 0 0 0 0 0 0 1 2 2 1 2 3 3 3 3 3 3 3 4 5 5 4 2 1 1 0 0 0 0 1 2 2 3 3 2 3 3 3 3 2 1 1
0 0 0 0 0 0 0 0 1 1 2 3 3 3 3 3 3 3 3 3 4 4 3 3 2 1 0 0 0 0 0 1 2 2 3 3 3 2 2 3 3 2 2
0 0 1 1 0 0 0 0 0 1 3 3 3 3 3 3 3 3 3 3 3 4 3 3 2 1 1 1 0 0 0 0 1 1 2 2 2 2 2 2 2 3 3
0 1 2 2 1 1 1 1 1 1 3 3 3 3 3 3 3 3 4 4 4 5 4 3 3 2 2 2 1 1 0 0 0 0 1 1 1 2 2 1 1 2 2
0 1 3 4 4 3 3 3 2 2 3 4 4 4 4 3 3 4 5 5 5 5 5 4 3 3 3 3 2 2 1 0 0 0 0 0 1 2 2 1 0 1 1
0 1 3 6 6 5 5 5 4 3 5 5 5 4 4 3 4 5 6 6 4 4 4 4 3 3 2 2 2 2 1 0 0 0 0 0 0 1 2 1 1 1 0
0 1 3 6 7 6 6 6 5 5 6 6 5 3 3 3 5 6 6 5 2 1 2 2 2 2 1 1 1 1 1 0 0 0 0 0 0 1 2 2 2 1 1
0 0 2 5 6 6 6 6 6 5 5 4 3 2 2 3 5 5 4 2 0 0 0 1 1 1 0 1 2 2 2 1 0 0 0 0 0 0 1 2 1 1 0
0 0 1 3 5 5 5 5 5 4 4 3 3 1 1 2 3 3 2 0 0 0 0 0 0 1 1 2 3 3 3 2 1 0 0 0 0 0 0 0 0 0 0
0 0 0 2 2 2 2 3 4 5 5 4 4 3 2 2 2 1 0 0 0 0 0 1 1 2 3 3 3 3 3 2 1 0 0 0 0 0 0 0 0 0 0
1 0 0 1 1 0 0 1 3 5 6 5 4 5 4 2 1 0 0 1 1 1 1 2 3 3 3 3 3 2 2 2 1 0 0 0 0 0 0 0 0 0 0
1 0 0 0 1 1 1 0 1 2 3 3 4 4 3 1 0 0 1 3 4 3 3 3 3 3 3 3 2 2 2 2 1 0 0 0 0 0 0 0 1 2 1
1 0 0 1 2 2 2 1 1 1 1 1 2 2 1 0 1 1 1 2 4 4 3 3 3 3 3 2 1 1 1 2 1 0 0 0 0 1 1 1 2 3 3
0 0 0 1 2 3 3 4 4 2 1 1 2 2 1 1 2 2 2 3 3 3 2 2 1 2 2 1 0 0 1 1 1 0 0 0 1 2 2 3 3 4 4
0 0 0 1 2 3 3 5 5 4 3 3 2 2 2 3 3 3 3 3 3 2 1 0 1 1 2 1 0 0 0 0 0 0 0 1 2 3 3 3 3 3 3
1 1 1 1 1 2 3 4 4 4 4 4 3 3 3 3 3 3 3 3 2 1 0 0 0 1 1 0 0 1 0 0 0 0 0 1 2 3 3 3 2 2 2
2 2 2 3 2 3 5 5 5 4 4 4 3 3 3 3 3 3 3 1 1 1 0 0 0 0 0 0 1 1 1 0 0 0 0 0 1 1 2 3 2 2 2
2 3 4 5 5 5 6 7 7 6 4 2 3 3 4 4 4 3 3 1 0 0 0 0 0 1 1 1 1 1 1 0 0 0 0 0 0 0 1 2 2 2 2
4 5 5 7 7 7 6 6 6 5 3 2 2 4 4 5 5 4 4 3 2 1 0 0 1 2 2 2 1 1 0 0 0 0 0 0 0 0 0 1 1 2 2
9 8 8 8 8 7 7 7 6 5 3 1 2 3 4 5 6 6 6 5 4 3 2 2 3 3 4 3 1 0 0 0 0 0 0 0 0 0 0 0 0 1 1
13 12 10 10 9 8 8 9 8 6 3 2 2 3 3 4 6 6 6 6 6 4 4 4 3 2 2 2 1 0 0 0 0 0 0 0 0 0 0 0 0 0 1
18 15 12 11 11 10 10 10 8 7 5 3 2 4 4 5 6 6 6 6 5 4 4 3 2 1 1 1 0 0 0 0 0 0 0 0 0 0 0 0 0 0 0
19 18 16 16 15 14 13 11 9 8 6 4 3 4 5 6 6 6 6 5 4 3 3 2 1 0 0 0 0 0 0 0 0 0 0 0 0 0 0 0 0 0 0
20 20 21 21 19 17 15 13 11 9 8 5 4 4 6 6 6 6 5 4 3 3 3 2 1 0 0 0 0 0 0 0 0 0 0 0 0 0 0 0 0 0 0
21 22 24 24 21 18 14 12 11 10 8 6 5 5 6 6 5 4 4 3 3 3 2 1 0 0 0 0 0 0 0 0 0 0 0 0 0 0 0 0 0 0 0
23 24 26 25 22 18 14 12 10 9 8 7 6 6 5 4 4 4 3 3 3 3 1 0 0 0 0 0 0 0 0 0 0 0 0 0 0 0 0 0 0 0 0
Wind_Speed
2 2 7 9 10 11 12 12 13 13 14 15 16 17 17 17 17 17 17 17 17 17 17 17 17 17 17 17 17 16 16 15 14 14 14 14 13 14 14 14 13 10 15
2 3 7 10 10 11 12 12 13 14 14 15 16 17 17 17 18 17 16 17 16 16 17 16 16 16 16 16 16 15 15 14 14 14 14 12 13 13 13 14 13 9 14
4 3 6 9 11 11 12 12 12 13 14 15 16 16 17 17 17 17 16 16 16 16 16 16 16 16 15 15 15 14 14 14 14 13 12 7 8 12 12 14 14 14 14
5 3 6 10 11 12 12 12 12 13 15 15 16 16 16 16 16 16 15 16 16 16 15 15 15 15 14 14 13 13 12 13 13 12 6 5 6 12 13 14 14 14 14
5 3 6 11 12 12 12 12 13 14 15 16 15 15 15 15 15 15 15 15 15 15 14 14 14 14 13 13 12 11 10 10 10 8 5 4 4 10 13 14 14 14 14
5 4 6 11 12 12 13 13 14 15 16 15 15 15 15 14 14 15 15 14 14 14 14 13 12 12 11 11 10 9 9 9 8 5 5 4 4 10 13 13 14 14 13
5 4 6 11 12 13 13 13 14 15 15 14 14 14 13 13 14 14 14 14 13 13 12 12 11 10 10 9 8 7 8 8 6 5 5 4 6 11 13 13 13 13 13
7 5 6 11 12 13 12 13 13 14 14 13 13 13 13 12 12 13 13 13 13 12 11 10 10 9 8 7 6 6 6 6 7 6 5 5 9 12 13 13 13 13 13
7 6 5 5 7 10 11 12 13 13 13 12 12 12 12 12 12 11 11 11 11 11 10 9 9 8 7 6 5 5 5 6 5 4 6 5 10 13 13 13 13 13 13
6 5 4 4 4 4 6 10 11 12 12 12 12 12 11 10 10 10 9 9 10 9 9 9 8 7 6 5 4 4 4 5 4 4 3 6 12 13 14 13 14 13 13
6 4 4 4 4 4 4 7 8 9 9 9 8 10 8 4 4 5 7 8 8 8 7 7 7 6 5 3 3 3 3 2 4 3 3 8 13 14 14 14 13 13 13
6 5 4 4 4 3 4 3 2 3 4 4 3 4 3 3 2 3 5 7 7 6 6 6 6 4 2 1 2 2 1 3 3 3 4 11 13 14 14 14 14 13 13
7 6 4 4 4 4 3 3 2 2 2 2 3 3 3 2 2 2 1 2 2 3 2 2 2 1 1 1 1 1 2 3 2 3 5 12 13 14 14 14 14 14 13
7 6 5 5 4 4 3 3 2 2 2 2 2 3 3 2 2 2 1 1 1 1 1 1 1 2 2 2 3 3 3 3 3 3 5 12 13 14 15 15 15 15 14
7 6 5 5 5 4 3 2 3 3 3 3 2 2 3 3 2 2 1 1 2 1 2 1 2 2 2 2 3 3 3 4 4 5 4 12 13 13 15 15 15 15 15
7 6 5 5 4 4 3 2 2 3 3 2 2 3 3 3 2 2 1 1 2 2 2 2 2 2 2 2 2 3 3 4 4 5 4 8 13 13 14 15 15 15 15
7 6 6 5 4 4 3 3 3 2 3 2 2 3 3 3 3 2 2 1 1 1 1 1 1 1 1 1 1 1 2 3 4 5 5 4 6 11 14 14 14 15 15
7 6 6 6 5 4 3 2 2 2 3 2 2 2 2 2 3 2 1 1 1 1 1 1 1 0 0 0 1 1 1 2 3 4 4 5 4 5 9 14 14 14 15
7 7 6 5 5 4 3 3 2 2 2 2 2 1 2 2 2 2 2 1 1 0 0 1 1 1 1 1 1 1 1 1 2 4 4 5 5 5 5 9 13 14 15
7 6 6 5 5 4 3 2 2 1 1 1 2 2 2 2 2 2 1 1 1 1 0 0 1 1 1 1 0 0 0 1 2 3 4 3 4 5 5 5 6 9 14
7 6 6 5 4 4 2 2 2 1 1 1 1 2 2 2 2 2 1 1 1 1 1 1 1 0 0 1 1 1 2 1 1 2 2 2 3 4 4 4 4 4 5
8 7 6 6 5 4 3 3 2 2 2 2 1 1 2 2 2 2 2 1 1 1 1 1 1 1 0 1 2 1 2 3 2 1 1 2 3 2 3 4 4 4 4
9 9 8 7 5 5 4 2 2 2 1 1 0 1 1 1 1 1 2 2 2 2 1 1 1 2 1 1 1 3 2 2 2 2 1 0 1 2 2 2 4 4 4
10 8 7 7 6 4 4 4 4 3 2 2 2 1 1 1 1 1 1 2 2 1 2 1 2 2 2 1 1 1 2 3 2 1 2 2 0 1 2 2 3 3 3
10 9 7 7 6 5 4 4 4 2 2 1 1 1 1 1 0 0 1 1 1 1 2 2 1 1 1 1 1 1 0 0 1 2 1 2 1 1 1 1 2 2 3
8 8 7 7 6 6 5 4 4 4 3 2 2 1 1 1 1 0 1 1 1 1 1 1 1 2 1 1 1 1 1 1 1 2 2 1 0 1 1 1 1 2 2
Wind_Direction
19 40 79 82 84 88 92 94 98 99 100 102 104 106 108 110 115 118 119 119 120 123 125 126 125 125 125 126 126 126 127 127 128 128 127 125 125 125 125 124 122 118 120
123 75 86 87 89 94 96 98 99 101 101 103 105 107 109 109 112 115 116 120 121 122 123 124 125 125 126 126 126 127 128 128 129 128 127 126 127 126 128 127 125 127 126
106 86 92 91 93 98 100 102 104 106 107 107 108 109 109 110 112 115 117 121 122 122 123 124 125 125 126 127 127 128 130 131 130 128 125 121 126 128 130 129 130 130 129
110 97 100 100 101 102 103 102 107 111 112 111 111 111 112 112 114 116 117 122 122 123 123 124 125 127 128 128 128 129 132 133 132 128 121 123 131 134 133 132 133 133 132
103 98 108 106 107 107 106 103 108 113 116 114 113 113 113 113 115 117 118 119 122 124 125 125 126 128 129 131 131 130 133 136 135 126 116 118 125 139 139 137 137 136 135
107 105 112 112 112 111 110 106 107 110 113 114 114 114 115 115 115 118 122 121 122 122 125 127 127 127 129 130 131 129 130 131 129 123 123 128 136 145 144 143 143 141 139
113 106 113 114 113 113 111 112 111 111 112 113 115 116 117 117 117 119 122 123 124 125 126 128 128 128 128 129 130 127 127 129 131 133 139 145 153 153 150 148 146 145 145
122 113 111 115 116 117 115 116 119 118 117 117 117 118 118 119 120 120 122 125 127 129 131 133 134 135 133 134 134 133 139 141 139 144 148 157 160 158 154 153 151 150 150
122 116 108 114 118 122 121 117 118 120 119 120 121 120 120 120 122 124 125 128 130 133 137 140 141 143 143 143 144 143 146 146 135 144 155 162 165 162 161 159 157 155 155
122 120 117 112 109 108 114 121 122 122 121 121 124 125 122 123 126 128 131 132 134 138 143 148 152 156 154 152 154 149 143 137 141 149 154 167 169 168 166 164 162 161 161
129 132 130 122 118 118 120 126 125 126 125 121 121 127 122 110 111 120 135 140 143 147 153 158 163 167 168 161 163 156 134 133 142 150 162 172 173 172 171 169 167 165 164
143 146 144 138 135 132 132 117 112 117 114 114 116 122 124 131 136 138 138 149 153 161 167 173 178 181 178 149 172 184 138 145 150 162 177 177 178 175 173 172 172 171 170
154 150 152 148 146 149 136 131 123 115 120 127 132 135 131 130 134 129 130 151 165 181 183 183 201 214 199 186 182 187 170 159 165 178 181 182 182 179 178 177 178 177 177
140 146 154 150 148 152 146 145 146 145 142 145 155 150 138 133 140 151 165 180 185 191 197 211 206 215 221 212 199 199 178 167 176 180 183 184 183 183 183 184 184 184 183
140 145 150 143 144 146 139 150 144 153 156 160 159 146 143 147 156 158 175 191 202 193 193 209 212 218 219 213 205 189 180 181 183 182 185 188 187 187 189 190 190 190 189
147 151 150 141 143 140 135 136 142 152 156 149 155 159 154 159 163 162 177 186 193 201 197 192 197 197 208 195 194 182 183 182 181 182 183 191 194 192 194 195 196 197 196
156 155 154 151 143 140 140 143 143 149 138 142 160 161 159 165 162 160 168 191 209 212 194 189 190 167 187 195 216 200 178 178 172 184 185 187 194 199 200 200 201 201 200
154 156 162 156 150 150 148 145 141 145 143 150 157 158 164 168 165 157 163 214 234 228 188 182 183 134 272 249 260 236 178 177 178 188 190 191 191 198 206 206 205 204 204
158 158 159 154 156 159 153 142 137 140 151 160 156 161 177 176 170 159 180 215 210 181 190 210 148 156 197 248 239 250 204 180 186 191 193 195 195 195 196 207 209 207 207
158 156 154 151 159 155 141 122 111 114 153 168 176 187 185 193 189 172 185 211 173 149 180 146 175 190 203 205 232 339 287 212 194 198 199 197 201 202 199 206 209 212 208
155 154 155 152 162 148 139 142 143 164 176 177 196 195 193 198 190 173 182 196 172 164 193 173 144 169 272 139 93 356 337 324 220 211 201 194 206 205 195 199 202 204 204
165 162 159 163 164 164 162 162 163 160 175 180 205 202 204 199 191 178 174 180 175 154 133 148 131 123 249 140 132 105 354 342 334 294 212 199 207 193 191 196 199 199 196
169 170 170 172 167 167 161 138 121 90 66 69 259 264 252 202 191 179 172 174 176 164 181 196 148 148 185 252 155 145 148 237 304 323 313 225 179 178 193 190 190 194 193
176 171 166 164 161 163 154 149 154 157 169 201 203 220 258 230 213 199 157 162 174 168 179 196 169 170 155 223 270 190 176 172 174 300 330 343 64 161 185 196 192 182 183
172 168 165 159 160 160 161 166 162 162 178 179 177 180 269 314 275 186 164 158 164 172 179 188 175 170 166 180 207 220 180 169 150 156 273 322 357 0 189 186 166 162 168
164 165 165 161 166 166 169 167 169 169 174 164 168 174 233 303 323 348 162 151 149 157 186 198 192 184 195 196 198 175 160 172 188 168 195 246 346 348 27 70 132 144 151